Year,Month,Day,Hour,Minute,Value (Times are PST for temperature in C)
2010,05,06,00,00,7.30
2010,05,06,00,01,7.20
2010,05,06,00,02,7.20
2010,05,06,00,03,7.20
2010,05,06,00,04,7.20
2010,05,06,00,05,7.20
2010,05,06,00,06,7.20
2010,05,06,00,07,7.20
2010,05,06,00,08,7.20
2010,05,06,00,09,7.20
2010,05,06,00,10,7.20
2010,05,06,00,11,7.20
2010,05,06,00,12,7.10
2010,05,06,00,13,7.10
2010,05,06,00,14,7.10
2010,05,06,00,15,7.10
2010,05,06,00,16,7.10
2010,05,06,00,17,7.10
2010,05,06,00,18,7.10
2010,05,06,00,19,7.00
2010,05,06,00,20,7.00
2010,05,06,00,21,7.00
2010,05,06,00,22,6.90
2010,05,06,00,23,6.90
2010,05,06,00,24,6.90
2010,05,06,00,25,6.80
2010,05,06,00,26,6.80
2010,05,06,00,27,6.80
2010,05,06,00,28,6.70
2010,05,06,00,29,6.70
2010,05,06,00,30,6.60
2010,05,06,00,31,6.60
2010,05,06,00,32,6.50
2010,05,06,00,33,6.50
2010,05,06,00,34,6.40
2010,05,06,00,35,6.40
2010,05,06,00,36,6.40
2010,05,06,00,37,6.30
2010,05,06,00,38,6.30
2010,05,06,00,39,6.30
2010,05,06,00,40,6.30
2010,05,06,00,41,6.30
2010,05,06,00,42,6.30
2010,05,06,00,43,6.30
2010,05,06,00,44,6.30
2010,05,06,00,45,6.20
2010,05,06,00,46,6.20
2010,05,06,00,47,6.20
2010,05,06,00,48,6.20
2010,05,06,00,49,6.20
2010,05,06,00,50,6.20
2010,05,06,00,51,6.20
2010,05,06,00,52,6.20
2010,05,06,00,53,6.20
2010,05,06,00,54,6.20
2010,05,06,00,55,6.20
2010,05,06,00,56,6.30
2010,05,06,00,57,6.30
2010,05,06,00,58,6.30
2010,05,06,00,59,6.30
2010,05,06,01,00,6.30
2010,05,06,01,01,6.30
2010,05,06,01,02,6.30
2010,05,06,01,03,6.30
2010,05,06,01,04,6.30
2010,05,06,01,05,6.30
2010,05,06,01,06,6.30
2010,05,06,01,07,6.30
2010,05,06,01,08,6.30
2010,05,06,01,09,6.30
2010,05,06,01,10,6.30
2010,05,06,01,11,6.30
2010,05,06,01,12,6.40
2010,05,06,01,13,6.40
2010,05,06,01,14,6.40
2010,05,06,01,15,6.40
2010,05,06,01,16,6.40
2010,05,06,01,17,6.40
2010,05,06,01,18,6.30
2010,05,06,01,19,6.30
2010,05,06,01,20,6.30
2010,05,06,01,21,6.30
2010,05,06,01,22,6.30
2010,05,06,01,23,6.20
2010,05,06,01,24,6.20
2010,05,06,01,25,6.10
2010,05,06,01,26,6.10
2010,05,06,01,27,6.10
2010,05,06,01,28,6.00
2010,05,06,01,29,6.00
2010,05,06,01,30,5.90
2010,05,06,01,31,5.90
2010,05,06,01,32,5.90
2010,05,06,01,33,5.90
2010,05,06,01,34,5.90
2010,05,06,01,35,5.80
2010,05,06,01,36,5.80
2010,05,06,01,37,5.80
2010,05,06,01,38,5.70
2010,05,06,01,39,5.70
2010,05,06,01,40,5.70
2010,05,06,01,41,5.60
2010,05,06,01,42,5.60
2010,05,06,01,43,5.60
2010,05,06,01,44,5.60
2010,05,06,01,45,5.50
2010,05,06,01,46,5.50
2010,05,06,01,47,5.50
2010,05,06,01,48,5.50
2010,05,06,01,49,5.50
2010,05,06,01,50,5.50
2010,05,06,01,51,5.50
2010,05,06,01,52,5.50
2010,05,06,01,53,5.40
2010,05,06,01,54,5.40
2010,05,06,01,55,5.40
2010,05,06,01,56,5.40
2010,05,06,01,57,5.40
2010,05,06,01,58,5.40
2010,05,06,01,59,5.40
2010,05,06,02,00,5.40
2010,05,06,02,01,5.40
2010,05,06,02,02,5.40
2010,05,06,02,03,5.40
2010,05,06,02,04,5.40
2010,05,06,02,05,5.40
2010,05,06,02,06,5.40
2010,05,06,02,07,5.40
2010,05,06,02,08,5.40
2010,05,06,02,09,5.50
2010,05,06,02,10,5.50
2010,05,06,02,11,5.60
2010,05,06,02,12,5.60
2010,05,06,02,13,5.70
2010,05,06,02,14,5.70
2010,05,06,02,15,5.80
2010,05,06,02,16,5.90
2010,05,06,02,17,5.90
2010,05,06,02,18,5.90
2010,05,06,02,19,5.90
2010,05,06,02,20,5.90
2010,05,06,02,21,6.00
2010,05,06,02,22,6.00
2010,05,06,02,23,6.00
2010,05,06,02,24,6.00
2010,05,06,02,25,6.00
2010,05,06,02,26,6.00
2010,05,06,02,27,6.00
2010,05,06,02,28,6.10
2010,05,06,02,29,6.10
2010,05,06,02,30,6.10
2010,05,06,02,31,6.10
2010,05,06,02,32,6.10
2010,05,06,02,33,6.10
2010,05,06,02,34,6.20
2010,05,06,02,35,6.20
2010,05,06,02,36,6.20
2010,05,06,02,37,6.20
2010,05,06,02,38,6.20
2010,05,06,02,39,6.20
2010,05,06,02,40,6.20
2010,05,06,02,41,6.20
2010,05,06,02,42,6.20
2010,05,06,02,43,6.20
2010,05,06,02,44,6.20
2010,05,06,02,45,6.20
2010,05,06,02,46,6.30
2010,05,06,02,47,6.30
2010,05,06,02,48,6.30
2010,05,06,02,49,6.30
2010,05,06,02,50,6.30
2010,05,06,02,51,6.30
2010,05,06,02,52,6.40
2010,05,06,02,53,6.40
2010,05,06,02,54,6.40
2010,05,06,02,55,6.40
2010,05,06,02,56,6.40
2010,05,06,02,57,6.30
2010,05,06,02,58,6.40
2010,05,06,02,59,6.40
2010,05,06,03,00,6.30
2010,05,06,03,01,6.30
2010,05,06,03,02,6.30
2010,05,06,03,03,6.30
2010,05,06,03,04,6.30
2010,05,06,03,05,6.30
2010,05,06,03,06,6.30
2010,05,06,03,07,6.30
2010,05,06,03,08,6.30
2010,05,06,03,09,6.20
2010,05,06,03,10,6.20
2010,05,06,03,11,6.20
2010,05,06,03,12,6.10
2010,05,06,03,13,6.10
2010,05,06,03,14,6.00
2010,05,06,03,15,6.00
2010,05,06,03,16,6.00
2010,05,06,03,17,5.90
2010,05,06,03,18,5.90
2010,05,06,03,19,5.90
2010,05,06,03,20,5.90
2010,05,06,03,21,5.90
2010,05,06,03,22,5.90
2010,05,06,03,23,5.90
2010,05,06,03,24,5.90
2010,05,06,03,25,5.90
2010,05,06,03,26,5.90
2010,05,06,03,27,5.90
2010,05,06,03,28,5.90
2010,05,06,03,29,5.90
2010,05,06,03,30,5.90
2010,05,06,03,31,5.90
2010,05,06,03,32,5.90
2010,05,06,03,33,5.90
2010,05,06,03,34,5.90
2010,05,06,03,35,5.90
2010,05,06,03,36,5.90
2010,05,06,03,37,5.90
2010,05,06,03,38,5.90
2010,05,06,03,39,5.90
2010,05,06,03,40,5.90
2010,05,06,03,41,5.90
2010,05,06,03,42,5.80
2010,05,06,03,43,5.80
2010,05,06,03,44,5.80
2010,05,06,03,45,5.80
2010,05,06,03,46,5.70
2010,05,06,03,47,5.70
2010,05,06,03,48,5.70
2010,05,06,03,49,5.70
2010,05,06,03,50,5.70
2010,05,06,03,51,5.70
2010,05,06,03,52,5.70
2010,05,06,03,53,5.70
2010,05,06,03,54,5.80
2010,05,06,03,55,5.80
2010,05,06,03,56,5.80
2010,05,06,03,57,5.80
2010,05,06,03,58,5.80
2010,05,06,03,59,5.80
2010,05,06,04,00,5.80
2010,05,06,04,01,5.80
2010,05,06,04,02,5.80
2010,05,06,04,03,5.80
2010,05,06,04,04,5.80
2010,05,06,04,05,5.70
2010,05,06,04,06,5.70
2010,05,06,04,07,5.70
2010,05,06,04,08,5.60
2010,05,06,04,09,5.60
2010,05,06,04,10,5.50
2010,05,06,04,11,5.50
2010,05,06,04,12,5.40
2010,05,06,04,13,5.40
2010,05,06,04,14,5.40
2010,05,06,04,15,5.50
2010,05,06,04,16,5.50
2010,05,06,04,17,5.50
2010,05,06,04,18,5.60
2010,05,06,04,19,5.60
2010,05,06,04,20,5.60
2010,05,06,04,21,5.60
2010,05,06,04,22,5.60
2010,05,06,04,23,5.60
2010,05,06,04,24,5.60
2010,05,06,04,25,5.60
2010,05,06,04,26,5.60
2010,05,06,04,27,5.60
2010,05,06,04,28,5.70
2010,05,06,04,29,5.70
2010,05,06,04,30,5.60
2010,05,06,04,31,5.60
2010,05,06,04,32,5.60
2010,05,06,04,33,5.60
2010,05,06,04,34,5.60
2010,05,06,04,35,5.60
2010,05,06,04,36,5.60
2010,05,06,04,37,5.60
2010,05,06,04,38,5.60
2010,05,06,04,39,5.60
2010,05,06,04,40,5.60
2010,05,06,04,41,5.50
2010,05,06,04,42,5.50
2010,05,06,04,43,5.40
2010,05,06,04,44,5.40
2010,05,06,04,45,5.40
2010,05,06,04,46,5.40
2010,05,06,04,47,5.40
2010,05,06,04,48,5.40
2010,05,06,04,49,5.40
2010,05,06,04,50,5.40
2010,05,06,04,51,5.40
2010,05,06,04,52,5.30
2010,05,06,04,53,5.30
2010,05,06,04,54,5.30
2010,05,06,04,55,5.30
2010,05,06,04,56,5.20
2010,05,06,04,57,5.20
2010,05,06,04,58,5.20
2010,05,06,04,59,5.20
2010,05,06,05,00,5.10
2010,05,06,05,01,5.10
2010,05,06,05,02,5.10
2010,05,06,05,03,5.10
2010,05,06,05,04,5.00
2010,05,06,05,05,5.00
2010,05,06,05,06,5.10
2010,05,06,05,07,5.10
2010,05,06,05,08,5.10
2010,05,06,05,09,5.10
2010,05,06,05,10,5.10
2010,05,06,05,11,5.10
2010,05,06,05,12,5.10
2010,05,06,05,13,5.10
2010,05,06,05,14,5.10
2010,05,06,05,15,5.10
2010,05,06,05,16,5.10
2010,05,06,05,17,5.10
2010,05,06,05,18,5.00
2010,05,06,05,19,5.00
2010,05,06,05,20,4.90
2010,05,06,05,21,4.90
2010,05,06,05,22,4.90
2010,05,06,05,23,4.90
2010,05,06,05,24,4.90
2010,05,06,05,25,4.90
2010,05,06,05,26,4.90
2010,05,06,05,27,4.90
2010,05,06,05,28,4.90
2010,05,06,05,29,4.90
2010,05,06,05,30,5.00
2010,05,06,05,31,5.00
2010,05,06,05,32,5.00
2010,05,06,05,33,5.10
2010,05,06,05,34,5.10
2010,05,06,05,35,5.00
2010,05,06,05,36,5.00
2010,05,06,05,37,5.00
2010,05,06,05,38,5.00
2010,05,06,05,39,4.90
2010,05,06,05,40,4.90
2010,05,06,05,41,4.80
2010,05,06,05,42,4.80
2010,05,06,05,43,4.80
2010,05,06,05,44,4.70
2010,05,06,05,45,4.70
2010,05,06,05,46,4.70
2010,05,06,05,47,4.60
2010,05,06,05,48,4.60
2010,05,06,05,49,4.60
2010,05,06,05,50,4.50
2010,05,06,05,51,4.50
2010,05,06,05,52,4.50
2010,05,06,05,53,4.50
2010,05,06,05,54,4.50
2010,05,06,05,55,4.50
2010,05,06,05,56,4.50
2010,05,06,05,57,4.50
2010,05,06,05,58,4.50
2010,05,06,05,59,4.40
2010,05,06,06,00,4.40
2010,05,06,06,01,4.40
2010,05,06,06,02,4.40
2010,05,06,06,03,4.40
2010,05,06,06,04,4.40
2010,05,06,06,05,4.40
2010,05,06,06,06,4.40
2010,05,06,06,07,4.40
2010,05,06,06,08,4.40
2010,05,06,06,09,4.40
2010,05,06,06,10,4.50
2010,05,06,06,11,4.50
2010,05,06,06,12,4.50
2010,05,06,06,13,4.50
2010,05,06,06,14,4.60
2010,05,06,06,15,4.60
2010,05,06,06,16,4.60
2010,05,06,06,17,4.70
2010,05,06,06,18,4.70
2010,05,06,06,19,4.70
2010,05,06,06,20,4.70
2010,05,06,06,21,4.70
2010,05,06,06,22,4.70
2010,05,06,06,23,4.70
2010,05,06,06,24,4.70
2010,05,06,06,25,4.70
2010,05,06,06,26,4.60
2010,05,06,06,27,4.60
2010,05,06,06,28,4.60
2010,05,06,06,29,4.60
2010,05,06,06,30,4.60
2010,05,06,06,31,4.60
2010,05,06,06,32,4.60
2010,05,06,06,33,4.60
2010,05,06,06,34,4.60
2010,05,06,06,35,4.60
2010,05,06,06,36,4.50
2010,05,06,06,37,4.50
2010,05,06,06,38,4.50
2010,05,06,06,39,4.50
2010,05,06,06,40,4.50
2010,05,06,06,41,4.40
2010,05,06,06,42,4.40
2010,05,06,06,43,4.40
2010,05,06,06,44,4.50
2010,05,06,06,45,4.50
2010,05,06,06,46,4.50
2010,05,06,06,47,4.50
2010,05,06,06,48,4.50
2010,05,06,06,49,4.50
2010,05,06,06,50,4.50
2010,05,06,06,51,4.60
2010,05,06,06,52,4.60
2010,05,06,06,53,4.60
2010,05,06,06,54,4.60
2010,05,06,06,55,4.60
2010,05,06,06,56,4.60
2010,05,06,06,57,4.60
2010,05,06,06,58,4.60
2010,05,06,06,59,4.70
2010,05,06,07,00,4.70
2010,05,06,07,01,4.70
2010,05,06,07,02,4.70
2010,05,06,07,03,4.70
2010,05,06,07,04,4.70
2010,05,06,07,05,4.70
2010,05,06,07,06,4.70
2010,05,06,07,07,4.80
2010,05,06,07,08,4.80
2010,05,06,07,09,4.80
2010,05,06,07,10,4.90
2010,05,06,07,11,4.90
2010,05,06,07,12,5.00
2010,05,06,07,13,5.00
2010,05,06,07,14,5.10
2010,05,06,07,15,5.10
2010,05,06,07,16,5.10
2010,05,06,07,17,5.20
2010,05,06,07,18,5.20
2010,05,06,07,19,5.20
2010,05,06,07,20,5.30
2010,05,06,07,21,5.30
2010,05,06,07,22,5.40
2010,05,06,07,23,5.50
2010,05,06,07,24,5.50
2010,05,06,07,25,5.60
2010,05,06,07,26,5.60
2010,05,06,07,27,5.70
2010,05,06,07,28,5.80
2010,05,06,07,29,5.90
2010,05,06,07,30,5.90
2010,05,06,07,31,6.00
2010,05,06,07,32,6.10
2010,05,06,07,33,6.20
2010,05,06,07,34,6.20
2010,05,06,07,35,6.30
2010,05,06,07,36,6.40
2010,05,06,07,37,6.40
2010,05,06,07,38,6.50
2010,05,06,07,39,6.60
2010,05,06,07,40,6.60
2010,05,06,07,41,6.70
2010,05,06,07,42,6.80
2010,05,06,07,43,6.80
2010,05,06,07,44,6.80
2010,05,06,07,45,6.90
2010,05,06,07,46,6.90
2010,05,06,07,47,7.00
2010,05,06,07,48,7.00
2010,05,06,07,49,7.10
2010,05,06,07,50,7.10
2010,05,06,07,51,7.20
2010,05,06,07,52,7.20
2010,05,06,07,53,7.30
2010,05,06,07,54,7.30
2010,05,06,07,55,7.40
2010,05,06,07,56,7.50
2010,05,06,07,57,7.50
2010,05,06,07,58,7.60
2010,05,06,07,59,7.70
2010,05,06,08,00,7.80
2010,05,06,08,01,7.80
2010,05,06,08,02,7.90
2010,05,06,08,03,8.00
2010,05,06,08,04,8.10
2010,05,06,08,05,8.20
2010,05,06,08,06,8.20
2010,05,06,08,07,8.30
2010,05,06,08,08,8.30
2010,05,06,08,09,8.40
2010,05,06,08,10,8.40
2010,05,06,08,11,8.50
2010,05,06,08,12,8.60
2010,05,06,08,13,8.70
2010,05,06,08,14,8.70
2010,05,06,08,15,8.70
2010,05,06,08,16,8.70
2010,05,06,08,17,8.70
2010,05,06,08,18,8.60
2010,05,06,08,19,8.50
2010,05,06,08,20,8.50
2010,05,06,08,21,8.40
2010,05,06,08,22,8.30
2010,05,06,08,23,8.30
2010,05,06,08,24,8.30
2010,05,06,08,25,8.30
2010,05,06,08,26,8.30
2010,05,06,08,27,8.30
2010,05,06,08,28,8.30
2010,05,06,08,29,8.30
2010,05,06,08,30,8.30
2010,05,06,08,31,8.30
2010,05,06,08,32,8.30
2010,05,06,08,33,8.30
2010,05,06,08,34,8.30
2010,05,06,08,35,8.30
2010,05,06,08,36,8.40
2010,05,06,08,37,8.40
2010,05,06,08,38,8.40
2010,05,06,08,39,8.40
2010,05,06,08,40,8.40
2010,05,06,08,41,8.40
2010,05,06,08,42,8.40
2010,05,06,08,43,8.40
2010,05,06,08,44,8.50
2010,05,06,08,45,8.50
2010,05,06,08,46,8.50
2010,05,06,08,47,8.50
2010,05,06,08,48,8.60
2010,05,06,08,49,8.60
2010,05,06,08,50,8.60
2010,05,06,08,51,8.60
2010,05,06,08,52,8.60
2010,05,06,08,53,8.60
2010,05,06,08,54,8.60
2010,05,06,08,55,8.60
2010,05,06,08,56,8.60
2010,05,06,08,57,8.60
2010,05,06,08,58,8.60
2010,05,06,08,59,8.60
2010,05,06,09,00,8.50
2010,05,06,09,01,8.50
2010,05,06,09,02,8.40
2010,05,06,09,03,8.40
2010,05,06,09,04,8.40
2010,05,06,09,05,8.40
2010,05,06,09,06,8.40
2010,05,06,09,07,8.40
2010,05,06,09,08,8.40
2010,05,06,09,09,8.40
2010,05,06,09,10,8.40
2010,05,06,09,11,8.40
2010,05,06,09,12,8.40
2010,05,06,09,13,8.30
2010,05,06,09,14,8.30
2010,05,06,09,15,8.30
2010,05,06,09,16,8.30
2010,05,06,09,17,8.30
2010,05,06,09,18,8.30
2010,05,06,09,19,8.30
2010,05,06,09,20,8.30
2010,05,06,09,21,8.30
2010,05,06,09,22,8.30
2010,05,06,09,23,8.30
2010,05,06,09,24,8.30
2010,05,06,09,25,8.30
2010,05,06,09,26,8.30
2010,05,06,09,27,8.30
2010,05,06,09,28,8.30
2010,05,06,09,29,8.30
2010,05,06,09,30,8.30
2010,05,06,09,31,8.40
2010,05,06,09,32,8.40
2010,05,06,09,33,8.50
2010,05,06,09,34,8.60
2010,05,06,09,35,8.60
2010,05,06,09,36,8.60
2010,05,06,09,37,8.60
2010,05,06,09,38,8.60
2010,05,06,09,39,8.60
2010,05,06,09,40,8.50
2010,05,06,09,41,8.50
2010,05,06,09,42,8.50
2010,05,06,09,43,8.50
2010,05,06,09,44,8.50
2010,05,06,09,45,8.50
2010,05,06,09,46,8.50
2010,05,06,09,47,8.50
2010,05,06,09,48,8.50
2010,05,06,09,49,8.50
2010,05,06,09,50,8.50
2010,05,06,09,51,8.60
2010,05,06,09,52,8.60
2010,05,06,09,53,8.60
2010,05,06,09,54,8.60
2010,05,06,09,55,8.70
2010,05,06,09,56,8.70
2010,05,06,09,57,8.70
2010,05,06,09,58,8.70
2010,05,06,09,59,8.70
2010,05,06,10,00,8.70
2010,05,06,10,01,8.70
2010,05,06,10,02,8.70
2010,05,06,10,03,8.70
2010,05,06,10,04,8.80
2010,05,06,10,05,8.80
2010,05,06,10,06,8.80
2010,05,06,10,07,8.80
2010,05,06,10,08,8.90
2010,05,06,10,09,8.90
2010,05,06,10,10,8.90
2010,05,06,10,11,8.90
2010,05,06,10,12,8.80
2010,05,06,10,13,8.80
2010,05,06,10,14,8.80
2010,05,06,10,15,8.80
2010,05,06,10,16,8.70
2010,05,06,10,17,8.60
2010,05,06,10,18,8.60
2010,05,06,10,19,8.50
2010,05,06,10,20,8.50
2010,05,06,10,21,8.40
2010,05,06,10,22,8.30
2010,05,06,10,23,8.30
2010,05,06,10,24,8.20
2010,05,06,10,25,8.20
2010,05,06,10,26,8.20
2010,05,06,10,27,8.30
2010,05,06,10,28,8.30
2010,05,06,10,29,8.40
2010,05,06,10,30,8.40
2010,05,06,10,31,8.50
2010,05,06,10,32,8.60
2010,05,06,10,33,8.70
2010,05,06,10,34,8.70
2010,05,06,10,35,8.70
2010,05,06,10,36,8.70
2010,05,06,10,37,8.70
2010,05,06,10,38,8.70
2010,05,06,10,39,8.70
2010,05,06,10,40,8.70
2010,05,06,10,41,8.80
2010,05,06,10,42,8.70
2010,05,06,10,43,8.70
2010,05,06,10,44,8.70
2010,05,06,10,45,8.80
2010,05,06,10,46,8.80
2010,05,06,10,47,8.80
2010,05,06,10,48,8.80
2010,05,06,10,49,8.80
2010,05,06,10,50,8.80
2010,05,06,10,51,8.90
2010,05,06,10,52,8.90
2010,05,06,10,53,9.00
2010,05,06,10,54,9.10
2010,05,06,10,55,9.10
2010,05,06,10,56,9.10
2010,05,06,10,57,9.10
2010,05,06,10,58,9.10
2010,05,06,10,59,9.20
2010,05,06,11,00,9.20
2010,05,06,11,01,9.30
2010,05,06,11,02,9.30
2010,05,06,11,03,9.30
2010,05,06,11,04,9.40
2010,05,06,11,05,9.40
2010,05,06,11,06,9.50
2010,05,06,11,07,9.60
2010,05,06,11,08,9.60
2010,05,06,11,09,9.70
2010,05,06,11,10,9.60
2010,05,06,11,11,9.50
2010,05,06,11,12,9.40
2010,05,06,11,13,9.30
2010,05,06,11,14,9.20
2010,05,06,11,15,9.20
2010,05,06,11,16,9.20
2010,05,06,11,17,9.20
2010,05,06,11,18,9.20
2010,05,06,11,19,9.20
2010,05,06,11,20,9.20
2010,05,06,11,21,9.30
2010,05,06,11,22,9.30
2010,05,06,11,23,9.30
2010,05,06,11,24,9.30
2010,05,06,11,25,9.30
2010,05,06,11,26,9.30
2010,05,06,11,27,9.30
2010,05,06,11,28,9.40
2010,05,06,11,29,9.40
2010,05,06,11,30,9.50
2010,05,06,11,31,9.50
2010,05,06,11,32,9.50
2010,05,06,11,33,9.50
2010,05,06,11,34,9.50
2010,05,06,11,35,9.50
2010,05,06,11,36,9.50
2010,05,06,11,37,9.60
2010,05,06,11,38,9.60
2010,05,06,11,39,9.60
2010,05,06,11,40,9.60
2010,05,06,11,41,9.60
2010,05,06,11,42,9.50
2010,05,06,11,43,9.30
2010,05,06,11,44,9.20
2010,05,06,11,45,9.20
2010,05,06,11,46,9.10
2010,05,06,11,47,9.10
2010,05,06,11,48,9.10
2010,05,06,11,49,9.10
2010,05,06,11,50,9.20
2010,05,06,11,51,9.20
2010,05,06,11,52,9.30
2010,05,06,11,53,9.40
2010,05,06,11,54,9.60
2010,05,06,11,55,9.60
2010,05,06,11,56,9.70
2010,05,06,11,57,9.80
2010,05,06,11,58,9.90
2010,05,06,11,59,9.90
2010,05,06,12,00,9.90
2010,05,06,12,01,9.90
2010,05,06,12,02,9.90
2010,05,06,12,03,9.90
2010,05,06,12,04,10.00
2010,05,06,12,05,10.10
2010,05,06,12,06,10.10
2010,05,06,12,07,10.10
2010,05,06,12,08,10.00
2010,05,06,12,09,10.00
2010,05,06,12,10,9.90
2010,05,06,12,11,9.80
2010,05,06,12,12,9.70
2010,05,06,12,13,9.70
2010,05,06,12,14,9.70
2010,05,06,12,15,9.60
2010,05,06,12,16,9.60
2010,05,06,12,17,9.60
2010,05,06,12,18,9.60
2010,05,06,12,19,9.60
2010,05,06,12,20,9.60
2010,05,06,12,21,9.60
2010,05,06,12,22,9.60
2010,05,06,12,23,9.60
2010,05,06,12,24,9.60
2010,05,06,12,25,9.70
2010,05,06,12,26,9.80
2010,05,06,12,27,9.90
2010,05,06,12,28,10.00
2010,05,06,12,29,10.10
2010,05,06,12,30,10.20
2010,05,06,12,31,10.30
2010,05,06,12,32,10.40
2010,05,06,12,33,10.40
2010,05,06,12,34,10.40
2010,05,06,12,35,10.40
2010,05,06,12,36,10.30
2010,05,06,12,37,10.30
2010,05,06,12,38,10.30
2010,05,06,12,39,10.30
2010,05,06,12,40,10.30
2010,05,06,12,41,10.30
2010,05,06,12,42,10.30
2010,05,06,12,43,10.30
2010,05,06,12,44,10.20
2010,05,06,12,45,10.10
2010,05,06,12,46,10.10
2010,05,06,12,47,10.10
2010,05,06,12,48,10.00
2010,05,06,12,49,9.90
2010,05,06,12,50,9.90
2010,05,06,12,51,10.00
2010,05,06,12,52,10.00
2010,05,06,12,53,10.10
2010,05,06,12,54,10.10
2010,05,06,12,55,10.20
2010,05,06,12,56,10.30
2010,05,06,12,57,10.40
2010,05,06,12,58,10.50
2010,05,06,12,59,10.50
2010,05,06,13,00,10.50
2010,05,06,13,01,10.50
2010,05,06,13,02,10.50
2010,05,06,13,03,10.60
2010,05,06,13,04,10.80
2010,05,06,13,05,10.90
2010,05,06,13,06,11.00
2010,05,06,13,07,11.00
2010,05,06,13,08,10.90
2010,05,06,13,09,10.80
2010,05,06,13,10,10.70
2010,05,06,13,11,10.60
2010,05,06,13,12,10.50
2010,05,06,13,13,10.50
2010,05,06,13,14,10.50
2010,05,06,13,15,10.50
2010,05,06,13,16,10.50
2010,05,06,13,17,10.50
2010,05,06,13,18,10.50
2010,05,06,13,19,10.50
2010,05,06,13,20,10.40
2010,05,06,13,21,10.40
2010,05,06,13,22,10.40
2010,05,06,13,23,10.40
2010,05,06,13,24,10.40
2010,05,06,13,25,10.40
2010,05,06,13,26,10.40
2010,05,06,13,27,10.50
2010,05,06,13,28,10.70
2010,05,06,13,29,10.70
2010,05,06,13,30,10.80
2010,05,06,13,31,10.80
2010,05,06,13,32,10.80
2010,05,06,13,33,10.70
2010,05,06,13,34,10.60
2010,05,06,13,35,10.60
2010,05,06,13,36,10.60
2010,05,06,13,37,10.50
2010,05,06,13,38,10.40
2010,05,06,13,39,10.40
2010,05,06,13,40,10.30
2010,05,06,13,41,10.40
2010,05,06,13,42,10.40
2010,05,06,13,43,10.40
2010,05,06,13,44,10.40
2010,05,06,13,45,10.40
2010,05,06,13,46,10.50
2010,05,06,13,47,10.50
2010,05,06,13,48,10.50
2010,05,06,13,49,10.50
2010,05,06,13,50,10.60
2010,05,06,13,51,10.60
2010,05,06,13,52,10.60
2010,05,06,13,53,10.70
2010,05,06,13,54,10.70
2010,05,06,13,55,10.70
2010,05,06,13,56,10.80
2010,05,06,13,57,10.80
2010,05,06,13,58,10.80
2010,05,06,13,59,10.80
2010,05,06,14,00,10.80
2010,05,06,14,01,10.80
2010,05,06,14,02,10.80
2010,05,06,14,03,10.80
2010,05,06,14,04,10.80
2010,05,06,14,05,10.80
2010,05,06,14,06,10.90
2010,05,06,14,07,11.00
2010,05,06,14,08,11.10
2010,05,06,14,09,11.20
2010,05,06,14,10,11.10
2010,05,06,14,11,11.10
2010,05,06,14,12,11.10
2010,05,06,14,13,11.10
2010,05,06,14,14,11.10
2010,05,06,14,15,11.20
2010,05,06,14,16,11.20
2010,05,06,14,17,11.20
2010,05,06,14,18,11.30
2010,05,06,14,19,11.40
2010,05,06,14,20,11.40
2010,05,06,14,21,11.40
2010,05,06,14,22,11.40
2010,05,06,14,23,11.50
2010,05,06,14,24,11.50
2010,05,06,14,25,11.40
2010,05,06,14,26,11.40
2010,05,06,14,27,11.40
2010,05,06,14,28,11.40
2010,05,06,14,29,11.30
2010,05,06,14,30,11.30
2010,05,06,14,31,11.30
2010,05,06,14,32,11.30
2010,05,06,14,33,11.40
2010,05,06,14,34,11.40
2010,05,06,14,35,11.40
2010,05,06,14,36,11.60
2010,05,06,14,37,11.70
2010,05,06,14,38,11.80
2010,05,06,14,39,11.80
2010,05,06,14,40,11.80
2010,05,06,14,41,11.80
2010,05,06,14,42,11.80
2010,05,06,14,43,11.70
2010,05,06,14,44,11.70
2010,05,06,14,45,11.60
2010,05,06,14,46,11.60
2010,05,06,14,47,11.50
2010,05,06,14,48,11.60
2010,05,06,14,49,11.60
2010,05,06,14,50,11.60
2010,05,06,14,51,11.60
2010,05,06,14,52,11.50
2010,05,06,14,53,11.50
2010,05,06,14,54,11.50
2010,05,06,14,55,11.60
2010,05,06,14,56,11.70
2010,05,06,14,57,11.80
2010,05,06,14,58,11.80
2010,05,06,14,59,11.90
2010,05,06,15,00,11.80
2010,05,06,15,01,11.60
2010,05,06,15,02,11.40
2010,05,06,15,03,11.40
2010,05,06,15,04,11.30
2010,05,06,15,05,11.30
2010,05,06,15,06,11.30
2010,05,06,15,07,11.30
2010,05,06,15,08,11.30
2010,05,06,15,09,11.30
2010,05,06,15,10,11.40
2010,05,06,15,11,11.50
2010,05,06,15,12,11.50
2010,05,06,15,13,11.50
2010,05,06,15,14,11.50
2010,05,06,15,15,11.50
2010,05,06,15,16,11.50
2010,05,06,15,17,11.50
2010,05,06,15,18,11.60
2010,05,06,15,19,11.70
2010,05,06,15,20,11.90
2010,05,06,15,21,12.00
2010,05,06,15,22,12.10
2010,05,06,15,23,12.20
2010,05,06,15,24,12.20
2010,05,06,15,25,12.30
2010,05,06,15,26,12.40
2010,05,06,15,27,12.40
2010,05,06,15,28,12.40
2010,05,06,15,29,12.40
2010,05,06,15,30,12.40
2010,05,06,15,31,12.50
2010,05,06,15,32,12.50
2010,05,06,15,33,12.50
2010,05,06,15,34,12.50
2010,05,06,15,35,12.60
2010,05,06,15,36,12.70
2010,05,06,15,37,12.80
2010,05,06,15,38,12.80
2010,05,06,15,39,12.80
2010,05,06,15,40,12.60
2010,05,06,15,41,12.50
2010,05,06,15,42,12.40
2010,05,06,15,43,12.30
2010,05,06,15,44,12.30
2010,05,06,15,45,12.30
2010,05,06,15,46,12.20
2010,05,06,15,47,12.20
2010,05,06,15,48,12.20
2010,05,06,15,49,12.20
2010,05,06,15,50,12.20
2010,05,06,15,51,12.10
2010,05,06,15,52,12.20
2010,05,06,15,53,12.20
2010,05,06,15,54,12.20
2010,05,06,15,55,12.30
2010,05,06,15,56,12.20
2010,05,06,15,57,12.20
2010,05,06,15,58,12.20
2010,05,06,15,59,12.20
2010,05,06,16,00,12.30
2010,05,06,16,01,12.30
2010,05,06,16,02,12.30
2010,05,06,16,03,12.40
2010,05,06,16,04,12.50
2010,05,06,16,05,12.50
2010,05,06,16,06,12.50
2010,05,06,16,07,12.50
2010,05,06,16,08,12.40
2010,05,06,16,09,12.30
2010,05,06,16,10,12.10
2010,05,06,16,11,12.00
2010,05,06,16,12,12.00
2010,05,06,16,13,11.90
2010,05,06,16,14,11.80
2010,05,06,16,15,11.80
2010,05,06,16,16,11.80
2010,05,06,16,17,11.70
2010,05,06,16,18,11.70
2010,05,06,16,19,11.70
2010,05,06,16,20,11.80
2010,05,06,16,21,11.90
2010,05,06,16,22,11.90
2010,05,06,16,23,12.00
2010,05,06,16,24,12.10
2010,05,06,16,25,12.20
2010,05,06,16,26,12.20
2010,05,06,16,27,12.10
2010,05,06,16,28,12.10
2010,05,06,16,29,12.10
2010,05,06,16,30,12.10
2010,05,06,16,31,12.10
2010,05,06,16,32,12.10
2010,05,06,16,33,12.10
2010,05,06,16,34,12.20
2010,05,06,16,35,12.10
2010,05,06,16,36,12.00
2010,05,06,16,37,11.90
2010,05,06,16,38,12.00
2010,05,06,16,39,12.10
2010,05,06,16,40,12.10
2010,05,06,16,41,12.10
2010,05,06,16,42,12.10
2010,05,06,16,43,12.00
2010,05,06,16,44,12.00
2010,05,06,16,45,12.00
2010,05,06,16,46,12.00
2010,05,06,16,47,12.00
2010,05,06,16,48,12.10
2010,05,06,16,49,12.10
2010,05,06,16,50,12.10
2010,05,06,16,51,12.20
2010,05,06,16,52,12.30
2010,05,06,16,53,12.40
2010,05,06,16,54,12.40
2010,05,06,16,55,12.40
2010,05,06,16,56,12.30
2010,05,06,16,57,12.20
2010,05,06,16,58,12.30
2010,05,06,16,59,12.30
2010,05,06,17,00,12.20
2010,05,06,17,01,12.30
2010,05,06,17,02,12.30
2010,05,06,17,03,12.20
2010,05,06,17,04,12.10
2010,05,06,17,05,12.00
2010,05,06,17,06,12.00
2010,05,06,17,07,12.00
2010,05,06,17,08,11.90
2010,05,06,17,09,12.00
2010,05,06,17,10,12.10
2010,05,06,17,11,12.10
2010,05,06,17,12,12.20
2010,05,06,17,13,12.20
2010,05,06,17,14,12.30
2010,05,06,17,15,12.30
2010,05,06,17,16,12.40
2010,05,06,17,17,12.40
2010,05,06,17,18,12.40
2010,05,06,17,19,12.40
2010,05,06,17,20,12.40
2010,05,06,17,21,12.40
2010,05,06,17,22,12.30
2010,05,06,17,23,12.30
2010,05,06,17,24,12.30
2010,05,06,17,25,12.30
2010,05,06,17,26,12.30
2010,05,06,17,27,12.30
2010,05,06,17,28,12.30
2010,05,06,17,29,12.30
2010,05,06,17,30,12.20
2010,05,06,17,31,12.20
2010,05,06,17,32,12.20
2010,05,06,17,33,12.20
2010,05,06,17,34,12.10
2010,05,06,17,35,12.00
2010,05,06,17,36,12.00
2010,05,06,17,37,11.90
2010,05,06,17,38,11.90
2010,05,06,17,39,11.90
2010,05,06,17,40,11.90
2010,05,06,17,41,11.90
2010,05,06,17,42,11.90
2010,05,06,17,43,11.90
2010,05,06,17,44,11.90
2010,05,06,17,45,11.90
2010,05,06,17,46,11.90
2010,05,06,17,47,11.90
2010,05,06,17,48,12.00
2010,05,06,17,49,12.00
2010,05,06,17,50,12.00
2010,05,06,17,51,12.00